Regional Weather Roundup
Issued by NWS

Home | Current Version | Previous Version | Graphics & Text | Print | Product List | Glossary Off
Versions: 1 2 3 4 5 6 7 8 9 10 11 12 13 14 15 16 17 18 19 20 21 22 23 24 25 26 27 28 29 30 31 32 33 34 35 36 37 38 39 40 41 42 43 44 45 46 47 48 49 50

000
ASUS43 KMKX 172100
RWRWI

WISCONSIN REGIONAL WEATHER ROUNDUP
NATIONAL WEATHER SERVICE MILWAUKEE/SULLIVAN WI
400 PM CDT WED SEP 17 2014

NOTE: "FAIR" INDICATES FEW OR NO CLOUDS BELOW 12,000 FEET WITH NO
SIGNIFICANT WEATHER AND/OR OBSTRUCTIONS TO VISIBILITY.

WIZ001-002-006>008-014>016-023>028-172200-
NORTHWEST WISCONSIN

CITY           SKY/WX    TMP DP  RH WIND       PRES   REMARKS
SUPERIOR ARPT  CLOUDY    50  46  85 E10G22    30.03R
ASHLAND        CLOUDY    49  44  83 NE15      30.05R
HAYWARD        PTSUNNY   66  52  60 NE12      29.96R
SIREN          MOSUNNY   71  47  41 CALM      29.95S
RICE LAKE      SUNNY     70  48  45 CALM      29.97S
LADYSMITH      MOSUNNY   67  52  57 CALM      29.97S
EAU CLAIRE     NOT AVBL
MENOMONIE      PTCLDY    70  51  50 CALM      29.95S
NEW RICHMOND   MOSUNNY   72  49  44 NW5       29.96R
OSCEOLA        SUNNY     72  51  47 NW3       29.98R
$$

WIZ003>005-009-010-017-018-172200-
NORTH CENTRAL WISCONSIN

CITY           SKY/WX    TMP DP  RH WIND       PRES   REMARKS
WOODRUFF       MOSUNNY   69  47  45 NW7G16    29.95R
RHINELANDER    SUNNY     68  45  43 NW8       29.96S
EAGLE RIVER    PTSUNNY   68  42  38 NW14      29.94R
LAND O LAKES   PTSUNNY   61  49  64 N14       29.97R
PHILLIPS       MOSUNNY   69  49  50 CALM      29.94F
TOMAHAWK       PTSUNNY   69  46  43 W8        29.96R
MEDFORD        PTSUNNY   69  49  50 SW6       29.96S
MERRILL        PTSUNNY   66  50  57 CALM      29.95S
$$

WIZ029-030-035-036-043>047-172200-
CENTRAL WISCONSIN

CITY           SKY/WX    TMP DP  RH WIND       PRES   REMARKS
WAUSAU         PTSUNNY   67  49  52 CALM      29.95R
MOSINEE        PTSUNNY   70  52  52 W9        29.97S
MARSHFIELD     MOSUNNY   66  51  58 W5        29.96S
STEVENS POINT  SUNNY     67  47  49 W7        29.97S
WAUPACA        MOSUNNY   70  46  42 W5        29.96S
WAUTOMA        NOT AVBL
WISC RAPIDS    PTSUNNY   70  47  43 CALM      29.98S
CAMP DOUGLAS   NOT AVBL
$$

WIZ011>013-019>022-031-037>040-048>050-172200-
NORTHEAST WISCONSIN

CITY           SKY/WX    TMP DP  RH WIND       PRES   REMARKS
ANTIGO         CLOUDY    66  48  51 W7        29.96R
STURGEON BAY   PTSUNNY   68  48  49 SW8       29.95S
GREEN BAY      PTSUNNY   71  50  47 SW10      29.94F
MANITOWOC      NOT AVBL
APPLETON       PTSUNNY   70  46  43 SW6       29.96S
CLINTONVILLE   MOSUNNY   70  46  43 W6        29.94F
OSHKOSH        PTSUNNY   68  49  50 W9        29.96S
$$

WIZ032>034-041-042-053>061-172200-
SOUTHWEST WISCONSIN

CITY           SKY/WX    TMP DP  RH WIND       PRES   REMARKS
LA CROSSE      SUNNY     71  53  52 S7        29.95S
SPARTA         MOSUNNY   70  46  42 S3        29.97S
VIROQUA        FAIR      69  47  45 SW8       29.97F
BOSCOBEL       PTSUNNY   73  49  42 S5        29.96F
PRAIRIE DU CHI SUNNY     69  47  46 SW3       29.96F
PLATTEVILLE    FAIR      69  49  48 SW8       29.99S
$$

WIZ056-057-062-063-064-067-068-172200-
SOUTH CENTRAL WISCONSIN

CITY           SKY/WX    TMP DP  RH WIND       PRES   REMARKS
BARABOO/DELLS  SUNNY     69  45  42 S7        29.97S
LONE ROCK      NOT AVBL
WATERTOWN      SUNNY     69  47  46 W7        29.96F
MADISON        MOSUNNY   68  46  45 SW6       29.98S
MIDDLETON      FAIR      70  46  41 W7        29.98S
MONROE         MOSUNNY   68  48  49 W5        29.98S
JANESVILLE     MOSUNNY   70  46  43 SW8       29.98S
$$

WIZ051-052-058>065-066-070>072-172200-
SOUTHEAST WISCONSIN

CITY           SKY/WX    TMP DP  RH WIND       PRES   REMARKS
MILWAUKEE      PTSUNNY   65  47  52 SE16      29.98S
WAUKESHA       MOSUNNY   66  45  45 W6        29.99S
MILWAUKEE/TIMM CLOUDY    68  43  40 W5        29.98F
RACINE         SUNNY     65  48  54 SE10      30.00S
BURLINGTON     SUNNY     68  46  44 S6        29.98S
KENOSHA        MOSUNNY   68  47  46 S3        29.99S
FOND DU LAC    MOSUNNY   68  48  48 SW8       29.97S
SHEBOYGAN      MOSUNNY   68  47  46 W9        29.97S
WEST BEND      CLOUDY    66  45  45 NW8       29.98S
JUNEAU         PTSUNNY   66  46  48 W6        29.98F
$$

LSZ147-162-172200-
LAKE SUPERIOR

STATION/POSITION TIME  TEMP    WIND        PRES    WAVE
                       AIR SEA DIR/SP/G            HT/PER
                 (UTC) (F)     (DEG/KT/KT) (MB)    (FT/S)
W MID LAKE BUOY  1950   44 46   60/ 17/ 19 1017.8R   6/ 6
DEVILS ISLAND    2000   45      70/ 20/ 23 1018.2R
PORT WING        2000   52      40/ 22/ 25 1016.6
SAXON HARBOR     2040   49      50/ 16/ 19 1017.6R
$$

LMZ867-665-643>646-172200-
LAKE MICHIGAN

STATION/POSITION TIME  TEMP    WIND        PRES    WAVE
                       AIR SEA DIR/SP/G            HT/PER
                 (UTC) (F)     (DEG/KT/KT) (MB)    (FT/S)
N MID LAKE BUOY  1950   58 59  210/ 14/ 16 1013.6S   2/ 3
NORTHPORT PIER   2000   66     130/  5/ 10 1013.2S
SISTER BAY       2012          260/  7/  7   N/A
KEWAUNEE LAKESHO 2000   58     160/  9/ 13 1013.3F
SHEBOYGAN LAKESH 2000   59 48  150/ 13/ 14 1015.3F
PORT WASHINGTON  2000   64     180/  6/ 10 1015.9
ATWATER BUOY     2000   61     150/ 10/ 12 1016.2F
MILWAUKEE LAKESH 2000   60     130/ 12/ 14   N/A
S MID LAKE BUOY  1950   62 65  220/  4/  4 1016.4F   1/ 4
KENOSHA   LAKESH 2000   64     150/ 11/ 12 1015.2F
$$

TC  - TEMPERATURE IN CELSIUS
VSB - VISIBILITY IN STATUTE MILES
WCI - WIND CHILL INDEX
HX  - HEAT INDEX



USA.gov is the U.S. government's official web portal to all federal, state and local government web resources and services.